Hintertux, Austria 16 day weather forecast

Slopes altitude range 630 m - 3250m

Number of lifts: 170 Pistes: 649km

In some cases the lift and piste totals shown are for the ski domain (e.g. Three Valleys) rather than individual resort (e.g. Courchevel)

Overview

The 16 day weather forecast is fully updated 4 times every day.

    • Thu 21 FEB 2019
    • Thu 21
    • -1C 5C
    • Fri 22 FEB 2019
    • Fri 22
    • -1C 1C
    • Sat 23 FEB 2019
    • Sat 23
    • -7C 0C
    • Sun 24 FEB 2019
    • Sun 24
    • -5C 3C
    • Mon 25 FEB 2019
    • Mon 25
    • -4C 5C
    • Tue 26 FEB 2019
    • Tue 26
    • -2C 6C
    • Wed 27 FEB 2019
    • Wed 27
    • 0C 9C
    • Thu 28 FEB 2019
    • Thu 28
    • 1C 10C
    • Fri 01 MAR 2019
    • Fri 01
    • 4C 13C
    • Sat 02 MAR 2019
    • Sat 02
    • 3C 14C
    • Sun 03 MAR 2019
    • Sun 03
    • 3C 8C
    • Mon 04 MAR 2019
    • Mon 04
    • 3C 16C
    • Tue 05 MAR 2019
    • Tue 05
    • 5C 11C
    • Wed 06 MAR 2019
    • Wed 06
    • 4C 8C
    • Thu 07 MAR 2019
    • Thu 07
    • -1C 2C
    • Fri 08 MAR 2019
    • Fri 08
    • -3C 0C

Date:

Time Type 0°C level Temp Chill Snow Cloud Speed Gust Dir Press
18:00 1311m 5°C 5_4 0cm 75% 4mph 5mph 1030mB
21:00 1200m -2°C -2_5 0cm 66% 5mph 6mph 1031mB
0:00 1336m -2°C -2_4 1cm 83% 4mph 5mph 1032mB
3:00 1300m -1°C -1_4 2cm 100% 4mph 7mph 1031mB
6:00 1302m -1°C -1_4 3cm 100% 4mph 7mph 1031mB
9:00 1424m -1°C -1_3 6cm 100% 3mph 7mph 1031mB
12:00 1531m 1°C 1_3 5cm 100% 3mph 5mph 1032mB
15:00 1569m 1°C 1_2 2cm 100% 2mph 3mph 1032mB
18:00 1422m 1°C 1_1 1cm 100% 1mph 1mph 1035mB
21:00 1283m -1°C -1_3 1cm 100% 3mph 3mph 1037mB
0:00 1089m -2°C -2_3 1cm 98% 3mph 4mph 1038mB
3:00 638m -5°C -5_4 0cm 23% 4mph 5mph 1037mB
6:00 440m -6°C -6_4 0cm 15% 4mph 5mph 1037mB
9:00 1331m -7°C -7_2 0cm 0% 2mph 4mph 1036mB
12:00 1440m 0°C 0_4 0cm 4% 4mph 6mph 1035mB
15:00 1463m 1°C 1_3 0cm 60% 3mph 5mph 1034mB
18:00 723m 1°C 1_3 0cm 36% 3mph 4mph 1036mB
21:00 623m -5°C -5_4 0cm 0% 4mph 5mph 1037mB
0:00 623m -5°C -5_3 0cm 0% 3mph 4mph 1037mB
3:00 637m -5°C -5_4 0cm 0% 4mph 5mph 1036mB
6:00 654m -5°C -5_4 0cm 0% 4mph 5mph 1037mB
9:00 1535m -5°C -5_2 0cm 0% 2mph 3mph 1036mB
12:00 1721m 3°C 3_3 0cm 0% 3mph 4mph 1035mB
15:00 2340m 3°C 3_2 0cm 0% 2mph 3mph 1034mB
18:00 1077m 3°C 3_3 0cm 0% 3mph 4mph 1037mB
21:00 1019m -3°C -3_4 0cm 0% 4mph 5mph 1039mB
0:00 991m -3°C -3_4 0cm 0% 4mph 5mph 1039mB
3:00 913m -3°C -3_4 0cm 0% 4mph 5mph 1038mB
6:00 878m -4°C -4_4 0cm 8% 4mph 5mph 1039mB
9:00 2534m -4°C -4_3 0cm 0% 3mph 5mph 1038mB
12:00 2640m 5°C 5_4 0cm 0% 4mph 6mph 1036mB
15:00 2723m 5°C 5_3 0cm 0% 3mph 5mph 1034mB
18:00 1417m 5°C 5_4 0cm 0% 4mph 4mph 1036mB
21:00 1313m -1°C -1_4 0cm 33% 4mph 5mph 1037mB
0:00 1255m -1°C -1_4 0cm 66% 4mph 5mph 1037mB
3:00 1192m -2°C -2_4 0cm 29% 4mph 5mph 1036mB
6:00 1112m -2°C -2_4 0cm 34% 4mph 5mph 1036mB
9:00 2816m -2°C -2_1 0cm 83% 1mph 1mph 1034mB
12:00 2797m 6°C 6_3 0cm 89% 3mph 4mph 1032mB
15:00 2935m 7°C 7_2 0cm 83% 2mph 3mph 1031mB
18:00 2997m 7°C 7_3 0cm 78% 3mph 4mph 1032mB
21:00 1372m 0°C 0_4 0cm 63% 4mph 5mph 1033mB
0:00 1373m 0°C 0_4 0cm 38% 4mph 5mph 1032mB
3:00 1369m 0°C 0_4 0cm 0% 4mph 5mph 1030mB
6:00 1371m 0°C 0_4 0cm 12% 4mph 5mph 1030mB
9:00 3085m 0°C 0_2 0cm 23% 2mph 4mph 1028mB
12:00 3241m 9°C 9_3 0cm 11% 3mph 4mph 1026mB
15:00 3403m 9°C 9_3 0cm 0% 3mph 4mph 1024mB
18:00 3508m 9°C 9_4 0cm 0% 4mph 5mph 1025mB
21:00 3532m 2°C 2_5 0cm 0% 5mph 6mph 1025mB
0:00 3480m 2°C 2_5 0cm 0% 5mph 5mph 1025mB
3:00 3137m 1°C 1_5 0cm 0% 5mph 6mph 1024mB
6:00 3009m 1°C 1_5 0cm 0% 5mph 6mph 1024mB
9:00 2892m 1°C 1_2 0cm 19% 2mph 3mph 1023mB
12:00 2831m 10°C 10_4 0cm 12% 4mph 7mph 1021mB
15:00 2735m 11°C 11_3 0cm 85% 3mph 4mph 1021mB
18:00 2603m 11°C 11_3 0cm 76% 3mph 4mph 1023mB
21:00 2294m 0°C 0_3 0cm 91% 3mph 4mph 1025mB
0:00 1348m -1°C -1_4 0cm 91% 4mph 5mph 1026mB
3:00 1948m 4°C 4_6 0cm 18% 6mph 9mph 1025mB
6:00 1887m 4°C 4_5 0cm 32% 5mph 8mph 1026mB
9:00 2063m 4°C 4_5 0cm 15% 5mph 9mph 1025mB
12:00 2168m 13°C 13_5 0cm 44% 5mph 8mph 1023mB
15:00 2188m 13°C 13_5 0cm 49% 5mph 8mph 1021mB
18:00 2155m 13°C 13_3 0cm 45% 3mph 4mph 1023mB
21:00 1883m 6°C 6_5 0cm 13% 5mph 7mph 1024mB
0:00 1897m 5°C 5_4 0cm 29% 4mph 6mph 1024mB
3:00 2198m 4°C 4_5 0cm 67% 5mph 6mph 1022mB
6:00 1938m 3°C 3_4 0cm 59% 4mph 5mph 1022mB
9:00 2280m 3°C 3_5 0cm 76% 5mph 10mph 1019mB
12:00 2310m 14°C 14_7 0cm 80% 7mph 16mph 1016mB
15:00 2324m 15°C 15_9 0cm 75% 9mph 24mph 1013mB
18:00 2303m 15°C 15_8 0cm 43% 8mph 23mph 1013mB
21:00 2195m 9°C 9_10 0cm 78% 10mph 42mph 1012mB
0:00 1201m 6°C 6_20 0cm 89% 20mph 36mph 1014mB
3:00 989m 4°C 4_14 0cm 100% 14mph 28mph 1017mB
6:00 1009m 3°C 3_12 0cm 72% 12mph 31mph 1018mB
9:00 1059m 3°C 3_21 0cm 81% 21mph 39mph 1019mB
12:00 1242m 8°C 8_22 0cm 71% 22mph 39mph 1019mB
Morning 0.03125mm 0.0625 1632m 4°C 4_6 0cm 52% 6mph 17mph 1023mB
Afternoon 0.00520833mm 0 2633m 16°C 16_5 0cm 58% 5mph 11mph 1011mB
Morning 0.182292mm 0 1885m 8°C 8_8 0cm 91% 8mph 22mph 1011mB
Afternoon 0.135417mm 0.125 1572m 11°C 11_11 0cm 85% 11mph 20mph 1008mB
Morning 0.046875mm 0.25 1813m 5°C 5_6 0cm 76% 6mph 16mph 1004mB
Afternoon 0.223958mm 0.625 1289m 8°C 8_21 0cm 58% 21mph 39mph 1007mB
Morning 0.145833mm 1 772m 2°C 2_10 8cm 99% 10mph 23mph 1016mB
Afternoon 0.322917mm 2 642m 2°C 2_9 16cm 88% 9mph 14mph 1020mB
Morning 0.296875mm 2.9375 181m -2°C -2_8 24cm 99% 8mph 19mph 1029mB
Afternoon 0.515625mm 3 568m 0°C 0_9 24cm 100% 9mph 15mph 1033mB
Morning 0.135417mm 1.5 0m -6°C -6_5 12cm 69% 5mph 6mph 1038mB
Afternoon 0mm 0 1015m 5°C 5_2 0cm 11% 2mph 6mph 1029mB

16 day outlook at a glance

Forecast issued: 21/02/2019 17:52:31

Chat

Your comments and questions. In a resort? Let us know what it's like!


Characters left 250

For terms and conditions see Readers Comments on the Cookie and privacy policy page.